#timestamp,LO_Frequency,Hit,StdDev 
1623837615.4,286046996.8,P
1623837635.3,286046997.7,N
1623837655.1,286046996.5,P
1623837656.0,286046996.5,Y
1623837675.8,286047000.7,P
1623837695.7,286046998.5,N
1623837715.5,286046998.6,N
1623837735.3,286047000.7,N
1623837755.2,286046998.5,N
1623837775.0,286046999.0,N
1623837775.9,286046999.0,N
1623837795.8,286046998.8,N
1623837815.6,286046999.0,N
1623837835.4,286046998.8,N
1623837855.3,286046999.4,N
1623837875.1,286046996.6,Y
1623837895.9,286046999.0,P
1623837915.7,286046999.2,P
1623837935.5,286046996.6,P
1623837955.4,286046998.6,N
1623837975.2,286046999.4,N
1623837995.0,286046999.2,N
1623837995.9,286046999.2,N
1623838015.8,286046999.6,N
1623838035.6,286046999.1,N
1623838055.5,286046997.3,Y
1623838075.3,286046998.7,P
1623838095.1,286046999.5,P
1623838115.9,286046996.8,P
1623838135.7,286046996.9,Y
1623838155.5,286046998.4,P
1623838175.4,286046996.6,P
1623838195.2,286046997.0,P
1623838215.1,286046996.7,Y
1623838216.0,286046996.7,P
1623838235.8,286046998.2,P
1623838255.6,286047000.8,N
1623838275.5,286046998.4,N
1623838295.3,286047000.8,N
1623838315.2,286046998.3,N
1623838335.9,286046998.5,N
1623838355.7,286047000.8,N
1623838375.6,286046998.6,N
1623838395.4,286046998.8,N
1623838415.2,286047001.2,N
1623838435.1,286046998.5,N
1623838436.0,286046998.5,N
1623838455.8,286047002.3,N
1623838475.7,286047002.1,N
1623838495.5,286047001.6,N
1623838515.3,286047004.3,N
1623838535.2,286047003.5,N
1623838555.0,286047003.3,N
1623838555.9,286047003.3,N
1623838575.7,286047005.6,N
1623838595.6,286047003.2,N
1623838615.4,286047002.9,N
1623838635.3,286047002.9,N
1623838655.1,286047003.0,N
1623838656.0,286047003.0,N
1623838675.8,286047003.7,N
1623838695.7,286047003.1,N
1623838715.5,286047003.0,N
1623838735.3,286047002.9,N
1623838755.2,286047003.2,N
1623838775.0,286047003.0,N
1623838775.9,286047003.0,N
1623838795.8,286047005.6,N
1623838815.6,286047006.0,N
1623838835.4,286047003.7,N
1623838855.3,286047003.1,N
1623838875.1,286047005.8,Y
1623838895.8,286047002.1,P
1623838915.7,286047002.2,P
1623838935.5,286047003.9,P
1623838955.4,286047002.1,N
1623838975.2,286047002.6,Y
1623838995.0,286047001.0,P
1623838995.9,286047001.0,N
1623839015.8,286047000.6,N
1623839035.6,286047000.3,N
1623839055.5,286046999.8,N
1623839075.3,286047000.1,N
1623839095.1,286047002.6,Y
1623839115.9,286047000.3,P
1623839135.7,286047000.3,N
1623839155.6,286046998.2,P
1623839175.4,286046999.8,N
1623839195.2,286046999.9,N
1623839215.1,286046999.9,N
1623839216.0,286046999.9,N
1623839235.8,286047002.7,Y
1623839255.7,286047002.1,P
1623839275.5,286046999.7,N
1623839295.3,286047000.1,N
1623839315.2,286047000.1,N
1623839335.0,286047000.0,N
1623839335.9,286047000.0,N
1623839355.7,286046999.7,N
1623839375.6,286046999.9,N
1623839395.4,286047002.4,Y
1623839415.3,286047001.5,P
1623839435.1,286047004.2,P
1623839455.8,286047004.0,N
1623839475.7,286047001.5,N
1623839495.5,286047002.4,N
1623839515.4,286047002.8,N
1623839535.2,286046999.7,N
1623839555.0,286047002.7,N
1623839555.9,286047002.7,N
1623839575.8,286047002.1,N
1623839595.6,286047002.7,N
1623839615.5,286047002.1,N
1623839635.3,286047002.6,N
1623839655.1,286047002.7,N
1623839675.9,286046999.9,N
1623839695.7,286047000.1,N
1623839715.5,286046999.7,N
1623839735.4,286047002.7,N
1623839755.2,286047002.8,N
1623839775.1,286046999.7,N
1623839776.0,286046999.7,N
1623839795.8,286047002.5,N
1623839815.6,286047000.2,N
1623839835.5,286047000.6,N
1623839855.3,286047000.4,N
1623839875.1,286047000.6,N
1623839895.9,286047000.3,N
1623839915.7,286047000.4,N
1623839935.6,286047000.8,N
1623839955.4,286047001.2,N
1623839975.2,286047000.8,N
1623839995.1,286047002.6,N
1623839996.0,286047002.6,N
1623840015.8,286047000.2,N
1623840035.6,286046999.8,N
1623840055.5,286047000.5,N
1623840075.3,286046999.9,N
1623840095.2,286047002.2,N
1623840115.9,286047002.5,N
1623840135.7,286047001.7,N
1623840155.6,286047004.3,Y
1623840175.4,286047001.7,P
1623840195.2,286047001.8,P
1623840215.1,286047001.8,P
1623840216.0,286047001.8,Y
1623840235.8,286046999.9,P
1623840255.7,286047000.1,N
1623840275.5,286047001.1,N
1623840295.3,286046998.5,N
1623840315.2,286046999.4,N
1623840335.0,286047000.1,N
1623840335.9,286047000.1,N
1623840355.7,286047000.9,N
1623840375.6,286047002.0,N
1623840395.4,286047001.7,N
1623840415.3,286047002.6,N
1623840435.1,286047002.8,N
1623840436.0,286047002.8,N
1623840455.8,286047001.9,N
1623840475.7,286047002.6,N
1623840495.5,286047000.5,N
1623840515.3,286046998.8,N
1623840535.2,286046998.3,N
1623840555.0,286046998.6,N
1623840555.9,286046998.6,N
1623840575.8,286047001.0,N
1623840595.6,286046999.7,N
1623840615.4,286046998.1,N
1623840635.3,286046998.1,N
1623840655.1,286046999.8,N
1623840675.9,286047002.0,N
1623840695.7,286047002.0,N
1623840715.5,286047001.5,N
1623840735.4,286047002.0,N
1623840755.2,286047002.0,N
1623840775.0,286047000.2,N
1623840776.0,286047000.2,N
1623840795.8,286046998.7,N
1623840815.6,286047001.2,N
1623840835.5,286047000.6,N
1623840855.3,286046999.9,N
1623840875.1,286047001.2,N
1623840895.9,286047000.1,N
1623840915.7,286047000.5,N
1623840935.6,286046999.9,N
1623840955.4,286047000.9,N
1623840975.2,286047000.3,N
1623840995.1,286046999.7,N
1623840996.0,286046999.7,N
1623841015.8,286047000.4,N
1623841035.7,286046999.2,N
1623841055.5,286046998.8,N
1623841075.3,286046999.3,N
1623841095.2,286046999.3,N
1623841115.0,286046998.3,N
1623841115.9,286046998.3,N
1623841135.7,286047000.8,N
1623841155.6,286046999.7,N
1623841175.4,286047002.0,N
1623841195.3,286047000.2,N
